Location: Unspecified
(42.3650°N, 71.1030°W)
Time: 08:13:04
(UTC+00:00)

Hubble Space Telescope - Pass Details

Date: 30 May 2024
Orbit: 510 x 514 km, 28.5° (Epoch: 23 June)

Event Time Altitude Azimuth Distance (km) Brightness Sun altitude
Rises 01:10:56 0° 232° (SW) 2,609 4.4 -9.5°
Reaches altitude 10° 01:14:46 10° 195° (SSW) 1,722 3.1 -10.0°
Maximum altitude 01:15:50 11° 180° (S) 1,665 2.9 -10.1°
Enters shadow 01:16:48 10° 165° (SSE) 1,711 2.8 -10.3°
